Weather History for Tel Aviv, Israel

Change the Weather History Date:

Saturday, August 24, 2013

  Actual Average Record
Temperature  
Mean Temperature 82 °F -  
Max Temperature 88 °F 85 °F 95 °F (2007)
Min Temperature 75 °F 71 °F 68 °F (1996)
Cooling Degree Days 16    
Growing Degree Days 32 (Base 50)    
Moisture  
Dew Point 66 °F    
Average Humidity 60    
Maximum Humidity 78    
Minimum Humidity 35    
Precipitation  
Precipitation 0.00 in - - ()
Sea Level Pressure  
Sea Level Pressure 29.84 in    
Wind  
Wind Speed 6 mph ()    
Max Wind Speed 14 mph    
Max Gust Speed -    
Visibility 6.2 miles    
Events      
Averages and records for this station are not official NWS values.
T = Trace of Precipitation, MM = Missing Value Source: Averaged Metar Reports

Daily Weather History Graph

Daily Weather History Graph

Search for Another Location

Airport:

Trip Planner

Search our weather history database for the weather conditions in past years. The results will help you decide how hot, cold, wet, or windy it might be!

Date:

Astronomy

Aug. 24, 2013 Rise Set
Actual Time 6:10 AM IDT 7:14 PM IDT
Civil Twilight 5:45 AM IDT 7:39 PM IDT
Nautical Twilight 5:15 AM IDT 8:09 PM IDT
Astronomical Twilight 4:44 AM IDT 8:40 PM IDT
Moon 9:14 PM IDT (8/24) 9:31 AM IDT (8/24)
Length of Visible Light 13h 54m
Length of Day
13h 03m
Waning Gibbous, 86% of the Moon is Illuminated
Aug 24
Waning Gibbous
Aug 28
Last Quarter
Sep 5
New
Sep 12
First Quarter
Sep 19
Full

Hourly Weather History & Observations

Time (IDT) Temp. Heat Index Dew Point Humidity Pressure Visibility Wind Dir Wind Speed Gust Speed Precip Events Conditions
12:20 AM 78.8 °F - 68.0 °F 69% 29.86 in 6.2 mi Variable 2.3 mph - N/A   Partly Cloudy
12:50 AM 78.8 °F - 68.0 °F 69% 29.86 in 6.2 mi Variable 2.3 mph - N/A   Partly Cloudy
1:20 AM 78.8 °F - 68.0 °F 69% 29.83 in 6.2 mi Variable 3.5 mph - N/A   Partly Cloudy
1:50 AM 78.8 °F - 68.0 °F 69% 29.83 in 6.2 mi South 4.6 mph - N/A   Partly Cloudy
2:20 AM 77.0 °F - 68.0 °F 74% 29.83 in 6.2 mi South 4.6 mph - N/A   Partly Cloudy
2:50 AM 77.0 °F - 68.0 °F 74% 29.83 in 6.2 mi South 5.8 mph - N/A   Partly Cloudy
3:00 AM 77 °F - 67 °F 65% 29.85 in 6 mi South 5.8 mph - -   Scattered Clouds
3:20 AM 77.0 °F - 68.0 °F 74% 29.83 in 6.2 mi South 4.6 mph - N/A   Scattered Clouds
3:50 AM 77.0 °F - 68.0 °F 74% 29.83 in 6.2 mi South 4.6 mph - N/A   Partly Cloudy
4:20 AM 77.0 °F - 68.0 °F 74% 29.83 in 6.2 mi SSE 5.8 mph - N/A   Partly Cloudy
4:50 AM 77.0 °F - 68.0 °F 74% 29.83 in 6.2 mi South 5.8 mph - N/A   Partly Cloudy
5:20 AM 75.2 °F - 68.0 °F 78% 29.83 in 6.2 mi South 5.8 mph - N/A   Scattered Clouds
5:50 AM 75.2 °F - 68.0 °F 78% 29.83 in 6.2 mi South 5.8 mph - N/A   Scattered Clouds
6:20 AM 77.0 °F - 68.0 °F 74% 29.83 in 6.2 mi South 5.8 mph - N/A   Partly Cloudy
6:50 AM 77.0 °F - 68.0 °F 74% 29.83 in 6.2 mi South 6.9 mph - N/A   Scattered Clouds
7:20 AM 77.0 °F - 68.0 °F 74% 29.83 in 6.2 mi South 6.9 mph - N/A   Scattered Clouds
7:50 AM 78.8 °F - 68.0 °F 69% 29.83 in 6.2 mi South 8.1 mph - N/A   Partly Cloudy
8:20 AM 80.6 °F 83.2 °F 68.0 °F 65% 29.86 in 6.2 mi South 6.9 mph - N/A   Partly Cloudy
8:50 AM 82.4 °F 84.6 °F 66.2 °F 58% 29.86 in 6.2 mi SSW 6.9 mph - N/A   Partly Cloudy
9:20 AM 82.4 °F 84.6 °F 66.2 °F 58% 29.86 in 6.2 mi WSW 8.1 mph - N/A   Scattered Clouds
9:50 AM 82.4 °F 83.9 °F 64.4 °F 54% 29.86 in 6.2 mi West 9.2 mph - N/A   Mostly Cloudy
10:20 AM 82.4 °F 83.9 °F 64.4 °F 54% 29.86 in 6.2 mi West 9.2 mph - N/A   Mostly Cloudy
10:50 AM 84.2 °F 85.0 °F 62.6 °F 48% 29.86 in 6.2 mi West 9.2 mph - N/A   Scattered Clouds
11:20 AM 86.0 °F 86.6 °F 62.6 °F 45% 29.86 in 6.2 mi West 8.1 mph - N/A   Scattered Clouds
11:50 AM 86.0 °F 86.1 °F 60.8 °F 43% 29.86 in 6.2 mi West 11.5 mph - N/A   Scattered Clouds
12:20 PM 86.0 °F 86.6 °F 62.6 °F 45% 29.83 in 6.2 mi West 13.8 mph - N/A   Scattered Clouds
12:50 PM 86.0 °F 86.1 °F 60.8 °F 43% 29.83 in 6.2 mi West 12.7 mph - N/A   Scattered Clouds
1:20 PM 87.8 °F 88.5 °F 62.6 °F 43% 29.83 in 6.2 mi WNW 12.7 mph - N/A   Scattered Clouds
1:50 PM 86.0 °F 87.3 °F 64.4 °F 48% 29.83 in 6.2 mi West 11.5 mph - N/A   Scattered Clouds
2:20 PM 87.8 °F 88.5 °F 62.6 °F 43% 29.83 in 6.2 mi West 13.8 mph - N/A   Scattered Clouds
2:50 PM 87.8 °F 89.4 °F 64.4 °F 46% 29.83 in 6.2 mi West 13.8 mph - N/A   Scattered Clouds
3:00 PM 87 °F - 63 °F 35% 29.83 in 6 mi West 13.8 mph - -   Partly Cloudy
3:20 PM 87.8 °F 90.4 °F 66.2 °F 49% 29.83 in 6.2 mi WNW 13.8 mph - N/A   Scattered Clouds
3:50 PM 87.8 °F 90.4 °F 66.2 °F 49% 29.83 in 6.2 mi WNW 12.7 mph - N/A   Scattered Clouds
4:20 PM 84.2 °F 86.6 °F 66.2 °F 55% 29.83 in 6.2 mi West 12.7 mph - N/A   Scattered Clouds
4:50 PM 84.2 °F 87.3 °F 68.0 °F 58% 29.83 in 6.2 mi West 13.8 mph - N/A   Scattered Clouds
5:20 PM 86.0 °F 88.2 °F 66.2 °F 51% 29.83 in 6.2 mi WNW 13.8 mph - N/A   Mostly Cloudy
5:50 PM 84.2 °F 86.6 °F 66.2 °F 55% 29.83 in 6.2 mi WNW 13.8 mph - N/A   Mostly Cloudy
6:20 PM 84.2 °F 86.6 °F 66.2 °F 55% 29.83 in 6.2 mi WNW 12.7 mph - N/A   Partly Cloudy
6:50 PM 82.4 °F 84.6 °F 66.2 °F 58% 29.83 in 6.2 mi WNW 11.5 mph - N/A   Partly Cloudy
7:20 PM 82.4 °F 84.6 °F 66.2 °F 58% 29.83 in 6.2 mi WNW 10.4 mph - N/A   Partly Cloudy
7:50 PM 82.4 °F 84.6 °F 66.2 °F 58% 29.83 in 6.2 mi WNW 9.2 mph - N/A   Partly Cloudy
8:20 PM 80.6 °F 82.7 °F 66.2 °F 61% 29.83 in 6.2 mi WNW 8.1 mph - N/A   Partly Cloudy
8:50 PM 80.6 °F 82.7 °F 66.2 °F 61% 29.83 in 6.2 mi WNW 6.9 mph - N/A   Partly Cloudy
9:00 PM 81 °F - 66 °F 52% 29.84 in 6 mi WNW 6.9 mph - -   Scattered Clouds
9:20 PM 80.6 °F 82.7 °F 66.2 °F 61% 29.83 in 6.2 mi Variable 3.5 mph - N/A   Partly Cloudy
9:50 PM 80.6 °F 82.7 °F 66.2 °F 61% 29.83 in 6.2 mi Variable 3.5 mph - N/A   Scattered Clouds
10:20 PM 80.6 °F 82.7 °F 66.2 °F 61% 29.83 in 6.2 mi West 4.6 mph - N/A   Partly Cloudy
10:50 PM 80.6 °F 82.7 °F 66.2 °F 61% 29.83 in 6.2 mi Variable 2.3 mph - N/A   Partly Cloudy
11:20 PM 80.6 °F 82.7 °F 66.2 °F 61% 29.83 in 6.2 mi Variable 3.5 mph - N/A   Scattered Clouds
11:50 PM 78.8 °F - 66.2 °F 65% 29.83 in 6.2 mi Variable 3.5 mph - N/A   Scattered Clouds